Regional Weather Roundup
Issued by NWS Charleston, SC

Current Version | Previous Version | Graphics & Text | Print | Product List | Glossary On
Versions: 1 2 3 4 5 6 7 8 9 10 11 12 13 14 15 16 17 18 19 20 21 22 23 24 25 26 27 28 29 30 31 32 33 34 35 36 37 38 39 40 41 42 43 44 45 46 47 48 49 50
000
ASUS42 KCHS 252027
RWRCHS

REGIONAL WEATHER ROUNDUP
NATIONAL WEATHER SERVICE CHARLESTON SC
400 PM EDT TUE APR 25 2017

NOTE: "FAIR" INDICATES FEW OR NO CLOUDS BELOW 12,000 FEET WITH NO
SIGNIFICANT WEATHER AND/OR OBSTRUCTIONS TO VISIBILITY.

NOT ALL STATIONS ARE QUALITY CONTROLLED. USE DATA WITH CAUTION...
ESPECIALLY DEWPOINT OBSERVATIONS.

SCZ027-030-031-034>040-042>050-252100-
...SOUTHEAST SOUTH CAROLINA...

CITY           SKY/WX    TMP DP  RH WIND       PRES   REMARKS
N CHARLESTON   CLOUDY    73  58  59 W10       29.69F
WATERFRONT PRK   N/A     71  60  68 W5        29.68S
JOHNS ISLAND   CLOUDY    75  61  60 W7G15     29.70S
PINOPOLIS        N/A    N/A N/A N/A W7        29.61S
MONCKS CORNER  CLOUDY    72  57  60 W3        29.69S
SUMMERVILLE    CLOUDY    72  59  64 W5        29.70F
BEAUFORT MCAS  CLOUDY    77  59  53 W9        29.70F
BEAUFORT ARPT  CLOUDY    77  59  53 W10G16    29.70F
HILTON HEAD IS NOT AVBL
WALTERBORO     CLOUDY    72  59  64 W6        29.70F
ALLENDALE      CLOUDY    73  61  64 N6        29.69S

...SOUTHERN MIDLANDS AND PEE DEE...

CITY           SKY/WX    TMP DP  RH WIND       PRES   REMARKS
GEORGETOWN     CLOUDY    68  59  73 W7        29.69S
KINGSTREE      CLOUDY    66  57  72 W9        29.69S
ORANGEBURG     CLOUDY    73  58  59 NW8       29.70F
BARNWELL       MOCLDY    75  61  60 VRB5      29.70S
AIKEN          CLOUDY    70  57  64 NW6       29.74F
MANNING        CLOUDY    70  57  64 MISG      29.69F
COLUMBIA       PTSUNNY   74  56  53 NW10      29.69F
SUMTER         CLOUDY    68  57  68 W9        29.68S
FLORENCE       CLOUDY    64  59  83 NW5       29.69S
MYRTLE BEACH   PTSUNNY   66  59  77 W9        29.69S
N MYRTLE BEACH CLOUDY    66  59  78 W10       29.66F

$$

GAZ063-065-086>088-099>101-113>116-118-119-134>141-150-252100-
...SOUTHEAST GEORGIA...

CITY           SKY/WX    TMP DP  RH WIND       PRES   REMARKS
SAVANNAH ARPT  PTSUNNY   80  56  43 W13       29.71F
HUNTER AAF     PTSUNNY   79  62  55 W10       29.69F
FORT STEWART   PTSUNNY   81  57  44 W9G18     29.70F
STATESBORO     CLOUDY    78  57  48 NW9       29.71S
SYLVANIA       CLOUDY   N/A N/A N/A W8        29.71F
CLAXTON        FAIR      79  62  55 SW9       29.71F

...CSRA...CENTRAL AND FAR SOUTHEAST GEORGIA...

CITY           SKY/WX    TMP DP  RH WIND       PRES   REMARKS
THOMSON        CLOUDY    75  58  55 N10       29.76F
AUGUSTA-BUSH   PTSUNNY   78  57  48 NW15      29.69F
AUGUSTA-DANIEL CLOUDY    75  56  51 NW8       29.72S
SWAINSBORO     CLOUDY    79  57  47 W10       29.72F
VIDALIA        PTSUNNY   81  57  44 W10G18    29.72F
EASTMAN        FAIR      82  38  20 SW7       29.75F
HAZLEHURST     FAIR      82  59  45 W7        29.72F
ALMA           PTSUNNY   81  56  42 W12G18    29.74F
WAYCROSS       MOSUNNY   84  59  41 W10G16    29.72F
JESUP          MOCLDY    82  52  34 W8G18     29.72F
BAXLEY         PTSUNNY   81  61  50 W8G17     29.72F
BRUNSWICK      PTSUNNY   81  61  50 W10G17    29.73F
SAINT SIMONS   PTSUNNY   81  56  42 W14       29.73F

$$

SCZ027-028-034-036>038-045-046-048>050-GAZ119-141-252100-
...LAKE AND SUPPLEMENTAL COASTAL OBSERVATIONS...

STATION/POSITION TIME  TEMP    WIND        PRES    WAVE   SWELL
                       AIR SEA DIR/SP/G            HT/PER HT/PER/DIR
                 (UTC) (F)     (DEG/KT/KT) (MB)    (FT/S) (FT/S/D)
WINYAH BAY       1945   69     280/  9     1005.0S
LAKE MURRAY      1930   69     320/  3/  6 1005.8R
ACE BASIN NERRS  1930   75     260/  5     1006.0S
FORT PULASKI     2000   76 75  300/ 15/ 18 1006.2
SAPELO ISLAND    1945   78     260/ 12     1007.0S

$$

ANZ835-935-AMZ111-154-330-350-352-354-370-450-454-472-252100-
...C-MAN AND BUOY OBSERVATIONS...

STATION/POSITION TIME  TEMP    WIND        PRES    WAVE   SWELL
                       AIR SEA DIR/SP/G            HT/PER HT/PER/DIR
                 (UTC) (F)     (DEG/KT/KT) (MB)    (FT/S) (FT/S/D)
BUOY 41004       2010   68 73  270/ 14/ 17 1005.5
BUOY 41008       1950   72 72  180/  8/ 10 1006.6F   3/ 9   3/ 70/ 9
FOLLY BEACH CMAN 2000   73     280/  5/  9 1006.2F
CAPERS NEARSHORE 2008   74 71  290/ 12/ 17 1005.4F
FRIPP NEARSHORE  2008   69 71  200/ 14/ 16 1005.6F


STATION/POSITION TIME  TEMP    WIND        PRES    WAVE   SWELL
                       AIR SEA DIR/SP/G            HT/PER HT/PER/DIR
                 (UTC) (F)     (DEG/KT/KT) (MB)    (FT/S) (FT/S/D)
5E ST. MARYS GA  2000      74                N/A     3/11   2/ 80/11
FRYING PAN BUOY  2010   67 74  260/ 16/ 19 1004.1
BUOY 41025       1950   70 78  200/  6/  8 1002.9F   7/10   7/140/10
CAPE LOOKOUT NC  2000   69     190/ 10/ 12 1002.6F
BUOY 41002       1950   74 75  230/ 17/ 21 1006.6F   9/10   5/120/10
BUOY 41010       2010   72 78              1009.1
ST AUGUSTINE FL  2000   79 74  240/  9/ 11 1008.4F


$$




USA.gov is the U.S. government's official web portal to all federal, state and local government web resources and services.